Regional Weather Roundup
Issued by NWS

Home | Current Version | Previous Version | Text Only | Print | Product List | Glossary On
Versions: 1 2 3 4 5 6 7 8 9 10 11 12 13 14 15 16 17 18 19 20 21 22 23 24 25 26 27 28 29 30 31 32 33 34 35 36 37 38 39 40 41 42 43 44 45 46 47 48 49 50
000
ASUS44 KFWD 260810
RWRTX
NORTH TEXAS HOURLY WEATHER ROUNDUP
NATIONAL WEATHER SERVICE FORT WORTH TX
300 AM CDT FRI MAY 26 2017

NOTE: "FAIR" INDICATES FEW OR NO CLOUDS BELOW 12,000 FEET WITH NO
SIGNIFICANT WEATHER AND/OR OBSTRUCTIONS TO VISIBILITY.

TXZ118-119-260900-
DALLAS/FORT WORTH METROPLEX

CITY           SKY/WX    TMP DP  RH WIND       PRES   REMARKS
DFW AIRPORT    PTCLDY    76  69  79 S20G28    29.66R
DALLAS LOVE    PTCLDY    76  67  73 S15G21    29.68R
FTW MEACHAM    CLEAR     76  69  79 S21G28    29.66R
DAL-EXECUTIVE  CLEAR     74  68  81 S13G23    29.68R
FTW-ALLIANCE   PTCLDY    76  68  76 S10G24    29.66R
FTW-NAS-JRB    CLEAR     76  68  76 S18       29.67R
FTW-SPINKS     CLEAR     74  67  79 S16G25    29.69R
ARLINGTON      CLEAR     74  68  81 S18G24    29.67S
GRAND PRAIRIE  CLEAR     74  67  76 S12G24    29.69R
ADDISON        CLEAR     74  66  75 S13G21    29.69S
MESQUITE       CLEAR     72  65  78 S15       29.70S
LANCASTER      CLEAR     72  65  80 S16G22    29.71R
$$

TXZ091>094-102>105-117-120-121-131>134-260900-
NORTH CENTRAL TEXAS

CITY           SKY/WX    TMP DP  RH WIND       PRES   REMARKS
SHRMAN/DENISON CLEAR     73  64  72 S17G24    29.65S
GAINESVILLE    CLEAR     73  64  74 S14       29.66S
BOWIE          PTCLDY    77  66  68 S10       29.63S
BRIDGEPORT     PTCLDY    78  66  66 SW14G22   29.65S
DECATUR        PTCLDY    76  66  71 S8        29.66S
DENTON         CLEAR     74  68  81 S13       29.66R
MCKINNEY       CLEAR     74  66  76 S15       29.68R
BONHAM         CLOUDY    72  63  73 S16G26    29.67R
GREENVILLE     CLEAR     73  61  64 S16       29.70S
ROCKWALL       CLEAR     73  64  75 S21       29.70R
TERRELL        CLEAR     72  61  68 S14       29.71S
WAXAHACHIE     PTCLDY    72  68  87 S14G23    29.71S
CLEBURNE       CLEAR     73  72  94 S15       29.72R
GRANBURY       CLEAR     78  68  72 S6G16     29.70R
$$

TXZ083>090-098>101-113>116-127>130-139>142-154-155-260900-
WESTERN NORTH TEXAS

CITY           SKY/WX    TMP DP  RH WIND       PRES   REMARKS
WICHITA FALLS  CLEAR     81  60  48 SW17      29.58R
WF-KICKAPOO    CLEAR     83  62  48 S13G20    29.61S
VERNON         PTCLDY    80  49  34 SW18      29.58S
ABILENE        CLOUDY    79  63  57 S21G29    29.70S
ABILENE-DYESS  CLEAR     80  65  59 S20G25    29.68R
GRAHAM         PTCLDY    78  63  59 S8        29.64R
BRECKENRIDGE   MOCLDY    79  60  52 S13       29.66S
CISCO          CLOUDY    77  63  61 S14G21    29.71S
EASTLAND       PTCLDY    77  64  65 S17       29.70S
RANGER         PTCLDY    74  65  74 S13G18    29.71S
MINERAL WELLS  PTCLDY    74  67  78 SE8       29.66S
STEPHENVILLE   PTCLDY    73  67  80 S7        29.74S
COMANCHE       PTCLDY    75  69  82 S14G24    29.73R
BROWNWOOD      CLEAR     72  66  83 SE7       29.75R
COLEMAN        CLEAR     74  61  63 S10       29.74F
$$

TXZ143>147-156>162-174-175-260900-
CENTRAL TEXAS

CITY           SKY/WX    TMP DP  RH WIND       PRES   REMARKS
WACO           LGT RAIN  75  70  84 S22       29.73S
WACO-MCGREGOR  CLOUDY    75  71  87 S15G25    29.74S
HILLSBORO      CLOUDY    74  70  85 S16G22    29.73S
CORSICANA      MOCLDY    73  66  78 S16       29.75R
MEXIA          CLOUDY    72  66  82 S21G26    29.75S
HEARNE         CLOUDY    74  71  89 S12       29.78R
CAMERON        CLOUDY    76  70  82 S12       29.77R
TEMPLE         CLOUDY    75  71  87 S18G26    29.75R
KILLEEN        CLOUDY    75  70  85 S14G24    29.75R
KILLEEN-SKYLRK CLOUDY    76  71  85 S20       29.76R
FORT HOOD      CLOUDY    74  70  86 S18       29.73R
HAMILTON       PTCLDY    73  69  85 S16G22    29.75R
LAMPASAS       CLOUDY    76  72  88 S12G20    29.76R
$$

TXZ095>097-106>112-122>126-135>138-148>153-164>167-260900-
EAST TEXAS

CITY           SKY/WX    TMP DP  RH WIND       PRES   REMARKS
PARIS          PTCLDY    66  61  82 SE9       29.71R
SULPHUR SPRNGS CLEAR     74  58  56 S15G21    29.72S
MOUNT PLEASANT CLOUDY    70  59  67 S9        29.75R
GILMER         PTCLDY    70  60  70 S10G17    29.75R
MINEOLA        CLOUDY    72  59  64 S8        29.73R
TYLER          MOCLDY    71  62  73 S14       29.74R
LONGVIEW       MOCLDY    70  63  78 S13       29.76R
MARSHALL       PTCLDY    67  61  80 S7        29.80R
ATHENS         MOCLDY    70  59  68 S8        29.75R
PALESTINE      CLOUDY    71  64  77 S12G17    29.77S
JACKSONVILLE   PTCLDY    69  63  82 S10       29.78F
HENDERSON      PTCLDY    69  63  79 S7        29.78S
CENTER         MOSUNNY   72  66  81 S8        29.80S
NACOGDOCHES    PTCLDY    66  63  88 S8G16     29.77S
LUFKIN         CLEAR     68  65  90 S8        29.80S
$$

SUPPLEMENTAL OBSERVATIONS (NWS FORT WORTH AREA)

CITY           SKY/WX    TMP DP  RH WIND       PRES   REMARKS
CADDO GRASSLND   N/A     73  59  60 S14         N/A
PAT MAYSE LAKE   N/A     72  61  68 SE9         N/A
GREENVILLE       N/A     73  59  60 S12G20      N/A
CEDAR HILL       N/A     73  66  78 S9G23       N/A
LBJ GRASSLAND    N/A     75  66  73 S9          N/A
POSSUM KINGDOM   N/A     79  63  57 S12         N/A
GRANBURY         N/A     77  68  73 S8G17       N/A
MCGREGOR         N/A     75  70  83 S13G23      N/A
TEMPLE           N/A     75  72  88 S14G25      N/A
$$

SUPPLEMENTAL OBSERVATIONS (NWS NORMAN AREA)

CITY           SKY/WX    TMP DP  RH WIND       PRES   REMARKS
GOODLETT         N/A     73  35  25 S13       29.58S
ODELL            N/A     81  52  36 S18       29.58R
CROWELL          N/A     81  57  43 SW15      29.62S
KNOX CITY        N/A     82  58  44 SW14G20   29.66R
SEYMOUR          N/A     78  59  51 S13       29.63S
MILLERS CREEK    N/A     79  61  53 SW13G22     N/A
$$

SUPPLEMENTAL OBSERVATIONS (NWS SAN ANGELO AREA)

CITY           SKY/WX    TMP DP  RH WIND       PRES   REMARKS
HASKELL          N/A     73  58  59 S9        29.67S
THROCKMORTON     N/A     83  64  52 S13       29.66R
STAMFORD         N/A     78  64  60 SW15      29.68R
CLYDE            N/A     77  64  63 S13G20    29.74R
HAMBY            N/A     79  63  57 S15G23      N/A
IVIE RESERVOIR   N/A     75  64  69 SE5         N/A
COLORADO BEND    N/A     73  70  88 SW7G16      N/A
$$

SUPPLEMENTAL OBSERVATIONS (NWS SHREVEPORT AREA)

CITY           SKY/WX    TMP DP  RH WIND       PRES   REMARKS
CLARKSVILLE      N/A     68  63  83 SE6         N/A
TEXARKANA        N/A     70  63  78 SE3         N/A
LINDEN           N/A     66  57  72 SE2         N/A
GILMER           N/A     70  59  68 S6G14       N/A
HENDERSON        N/A     70  63  78 S12         N/A
N SABINE NF      N/A     66  61  82 MISG        N/A
S SABINE NF      N/A     68  64  88 S2          N/A
$$

SUPPLEMENTAL OBSERVATIONS ARE A COLLECTION OF AUTOMATED INSTRUMENTS
THAT ARE MAINTAINED BY A VARIETY OF FEDERAL AND STATE AGENCIES.
CERTAIN ELEMENTS...SUCH AS HUMIDITY VALUES AND SUSTAINED WIND
SPEEDS...MAY BE APPROXIMATED.





USA.gov is the U.S. government's official web portal to all federal, state and local government web resources and services.